Weather History for Kenosha, WI

Change the Weather History Date:

Saturday, January 5, 2013

  Actual Average Record
Temperature  
Mean Temperature 28 °F -  
Max Temperature 37 °F 27 °F 50 °F (2007)
Min Temperature 18 °F 11 °F -20 °F (1999)
Degree Days  
Heating Degree Days 38    
Moisture  
Dew Point 24 °F    
Average Humidity 81    
Maximum Humidity 92    
Minimum Humidity 60    
Precipitation  
Precipitation 0.11 in - - ()
Sea Level Pressure  
Sea Level Pressure 30.09 in    
Wind  
Wind Speed 8 mph (SW)    
Max Wind Speed 16 mph    
Max Gust Speed 26 mph    
Visibility 5 miles    
Events Fog , Snow    
Averages and records for this station are not official NWS values.
T = Trace of Precipitation, MM = Missing Value Source: NWS Daily Summary

Daily Weather History Graph

Daily Weather History Graph

Search for Another Location

Airport:

Trip Planner

Search our weather history database for the weather conditions in past years. The results will help you decide how hot, cold, wet, or windy it might be!

Date:

Astronomy

Jan. 05, 2013 Rise Set
Actual Time 7:21 AM CST 4:33 PM CST
Civil Twilight 6:49 AM CST 5:04 PM CST
Nautical Twilight 6:14 AM CST 5:40 PM CST
Astronomical Twilight 5:40 AM CST 6:14 PM CST
Moon 12:23 AM CST (1/5) 11:26 AM CST (1/5)
Length of Visible Light 10h 14m
Length of Day
9h 11m
Last Quarter, 44% of the Moon is Illuminated
Jan 5
Last Quarter
Jan 11
New
Jan 18
First Quarter
Jan 26
Full
Feb 3
Last Quarter

Hourly Weather History & Observations

Time (CST) Temp. Windchill Dew Point Humidity Pressure Visibility Wind Dir Wind Speed Gust Speed Precip Events Conditions
12:53 AM 21.9 °F 13.4 °F 17.1 °F 82% 30.20 in 9.0 mi West 6.9 mph - N/A   Clear
1:53 AM 19.0 °F 13.9 °F 15.1 °F 85% 30.21 in 8.0 mi West 3.5 mph - N/A   Clear
2:53 AM 21.9 °F 13.4 °F 18.0 °F 85% 30.25 in 7.0 mi SSW 6.9 mph - N/A   Clear
3:53 AM 21.0 °F 16.2 °F 16.0 °F 81% 30.24 in 5.0 mi SW 3.5 mph - N/A   Haze
4:53 AM 18.0 °F - 15.1 °F 88% 30.21 in 4.0 mi Calm Calm - N/A   Clear
5:53 AM 18.0 °F 12.7 °F 12.9 °F 81% 30.19 in 3.0 mi SSW 3.5 mph - N/A   Haze
6:53 AM 19.9 °F 13.4 °F 16.0 °F 85% 30.19 in 4.0 mi SSW 4.6 mph - N/A   Clear
7:30 AM 19.4 °F 14.3 °F 15.8 °F 86% 30.16 in 2.5 mi SW 3.5 mph - N/A   Clear
7:45 AM 19.4 °F 10.4 °F 15.8 °F 86% 30.16 in 3.0 mi SSW 6.9 mph - N/A   Clear
7:53 AM 19.9 °F 12.1 °F 17.1 °F 89% 30.20 in 4.0 mi SSW 5.8 mph - N/A   Clear
8:53 AM 24.1 °F 15.2 °F 19.9 °F 84% 30.18 in 4.0 mi SSW 8.1 mph - N/A   Clear
9:53 AM 28.9 °F 21.1 °F 21.9 °F 75% 30.18 in 6.0 mi SW 8.1 mph - N/A   Haze
10:53 AM 34.0 °F 26.0 °F 24.1 °F 67% 30.15 in 8.0 mi SW 10.4 mph - N/A   Clear
11:53 AM 37.0 °F 28.5 °F 25.0 °F 62% 30.10 in 9.0 mi SSW 13.8 mph 18.4 mph N/A   Clear
12:53 PM 37.9 °F 29.6 °F 25.0 °F 60% 30.07 in 10.0 mi WSW 13.8 mph 20.7 mph N/A   Mostly Cloudy
1:53 PM 36.0 °F 28.0 °F 25.0 °F 64% 30.04 in 10.0 mi SW 11.5 mph - N/A   Mostly Cloudy
2:53 PM 36.0 °F 28.5 °F 26.1 °F 67% 30.04 in 10.0 mi SW 10.4 mph - N/A   Overcast
3:27 PM 35.6 °F 26.6 °F 28.4 °F 75% 30.01 in 2.5 mi SW 13.8 mph 24.2 mph 0.00 in Snow Light Snow
3:36 PM 33.8 °F 25.8 °F 30.2 °F 87% 30.01 in 0.5 mi SW 10.4 mph - 0.00 in Fog , Snow Snow
3:53 PM 34.0 °F 26.6 °F 30.9 °F 89% 30.03 in 0.8 mi SSW 9.2 mph - 0.02 in Snow Light Snow
4:53 PM 34.0 °F 25.5 °F 30.9 °F 89% 30.01 in 0.8 mi SW 11.5 mph 18.4 mph 0.04 in Snow Light Snow
5:53 PM 34.0 °F 25.0 °F 32.0 °F 92% 30.00 in 3.0 mi SSW 12.7 mph - 0.03 in Snow Light Snow
6:53 PM 34.0 °F 25.0 °F 30.9 °F 89% 30.00 in 3.0 mi SW 12.7 mph - 0.01 in Snow Light Snow
7:53 PM 35.1 °F 25.2 °F 30.9 °F 85% 29.99 in 3.0 mi SW 16.1 mph 23.0 mph 0.01 in   Overcast
8:53 PM 35.1 °F 25.2 °F 30.9 °F 85% 29.96 in 5.0 mi SW 16.1 mph 26.5 mph 0.00 in   Overcast
9:53 PM 35.1 °F 25.9 °F 30.9 °F 85% 29.95 in 4.0 mi SW 13.8 mph 23.0 mph 0.00 in   Overcast
10:25 PM 35.6 °F 27.5 °F 30.2 °F 81% 29.92 in 6.0 mi SW 11.5 mph - N/A   Overcast
10:53 PM 35.1 °F 26.4 °F 30.9 °F 85% 29.94 in 6.0 mi SW 12.7 mph - N/A   Overcast
11:53 PM 36.0 °F 26.7 °F 30.9 °F 82% 29.91 in 6.0 mi SW 15.0 mph - N/A   Haze